MST,Max TemperatureF,Mean TemperatureF,Min TemperatureF,Max Dew PointF,MeanDew PointF,Min DewpointF,Max Humidity, Mean Humidity, Min Humidity, Max Sea Level PressureIn, Mean Sea Level PressureIn, Min Sea Level PressureIn, Max VisibilityMiles, Mean VisibilityMiles, Min VisibilityMiles, Max Wind SpeedMPH, Mean Wind SpeedMPH, Max Gust SpeedMPH,PrecipitationIn, CloudCover, Events, WindDirDegrees
2009-5-1,88,68,47,14,11,8,19,12,5,29.96,29.88,29.82,10,10,10,17,7,23,0.00,0,,229
2009-5-2,87,71,55,33,27,12,29,19,9,30.00,29.86,29.78,10,10,10,30,12,39,0.00,0,,310
2009-5-3,90,70,50,36,30,22,50,30,10,29.94,29.86,29.77,10,10,10,22,9,29,0.00,0,,327
2009-5-4,93,72,50,27,24,20,32,20,8,29.92,29.80,29.71,10,10,10,20,8,25,0.00,0,,323
2009-5-5,92,73,54,29,26,21,30,20,10,29.99,29.81,29.72,10,10,10,24,7,31,0.00,0,,313
2009-5-6,95,73,51,28,23,20,28,18,7,29.91,29.84,29.76,10,10,10,20,6,24,0.00,0,,309
2009-5-7,99,77,54,29,23,19,26,16,6,29.91,29.79,29.68,10,10,10,22,7,30,0.00,0,,316
2009-5-8,98,77,56,28,22,18,26,16,6,29.79,29.72,29.66,10,10,10,22,7,30,0.00,0,,284
2009-5-9,97,78,58,27,19,13,22,14,6,29.85,29.77,29.71,10,10,10,16,6,20,0.00,0,,178
2009-5-10,97,77,56,29,15,7,21,13,4,29.84,29.78,29.71,10,10,10,20,7,26,0.00,0,,186
2009-5-11,97,73,48,25,14,1,19,11,3,29.86,29.79,29.71,10,10,10,21,7,28,0.00,0,,202
2009-5-12,94,76,58,29,18,7,20,12,4,29.79,29.72,29.65,10,10,10,28,11,37,0.00,0,,213
2009-5-13,94,73,51,32,19,7,30,17,4,29.97,29.76,29.71,10,10,10,22,8,32,0.00,0,,224
2009-5-14,95,76,56,34,21,8,28,17,5,29.86,29.78,29.71,10,10,10,21,6,30,0.00,0,,215
2009-5-15,94,73,52,32,19,9,23,14,5,29.81,29.76,29.68,10,10,10,20,6,31,0.00,0,,185
2009-5-16,94,73,52,50,26,11,44,25,6,30.13,29.86,29.77,10,10,9,36,9,47,0.00,1,Thunderstorm,99
2009-5-17,92,76,60,50,42,34,51,33,14,30.12,29.91,29.84,10,10,10,29,12,38,0.00,0,,98
2009-5-18,94,80,66,45,39,31,38,25,11,30.12,29.90,29.79,10,10,2,29,9,37,0.00,0,,125
2009-5-19,90,75,59,55,44,36,55,36,16,30.02,29.88,29.78,10,10,10,29,7,35,0.00,3,,133
2009-5-20,72,67,61,58,54,50,90,69,47,30.07,29.89,29.83,10,10,8,13,4,16,0.10,8,Rain,114
2009-5-21,70,64,57,56,54,51,87,70,53,29.92,29.88,29.84,10,10,10,20,7,25,0.02,7,,308
2009-5-22,80,68,55,53,44,36,86,54,22,29.96,29.86,29.80,10,10,10,25,7,31,0.00,4,,11
2009-5-23,86,68,50,46,35,20,68,39,9,29.92,29.86,29.78,10,10,10,18,6,25,0.00,0,,283
2009-5-24,89,72,55,41,31,23,55,33,10,29.92,29.83,29.72,10,10,10,18,7,24,0.00,1,,211
2009-5-25,88,71,53,33,27,21,35,22,9,29.89,29.77,29.65,10,10,10,20,6,26,0.00,1,Thunderstorm,293
2009-5-26,88,73,57,34,28,20,36,23,9,29.94,29.78,29.70,10,10,10,28,7,38,0.00,0,,293
2009-5-27,88,71,54,33,28,18,41,25,8,29.86,29.79,29.73,10,10,10,28,7,36,0.00,0,,310
2009-5-28,92,74,56,49,37,28,49,30,11,30.06,29.87,29.77,10,10,3,28,6,41,0.11,2,Rain-Thunderstorm,20
2009-5-29,91,72,52,43,36,27,61,36,11,30.07,29.92,29.86,10,10,10,25,8,31,0.00,0,,29
2009-5-30,91,76,60,40,29,13,46,28,9,29.97,29.86,29.73,10,10,10,35,7,47,T,0,Rain-Thunderstorm,220
2009-5-31,90,70,49,22,11,3,26,15,4,29.99,29.81,29.74,10,10,10,23,8,29,0.00,0,,241